Location: Unspecified
(35.7250°N, 0.0000°E)
Time: 09:06:41
(UTC+00:00)

Vanguard 2 - Pass Details

Date: 17 June 2019
Orbit: 553 x 2938 km, 32.9° (Epoch: 18 July)

Event Time Altitude Azimuth Distance (km) Brightness Sun altitude
Rises 10:35:54 0° 256° (WSW) 3,815 10.9 67.9°
Reaches altitude 10° 10:38:07 10° 254° (WSW) 3,092 10.6 68.2°
Maximum altitude 10:46:03 74° 171° (S) 1,718 11.3 69.6°
Drops below altitude 10° 10:59:38 10° 89° (E) 5,062 12.1 71.9°
Sets 11:04:19 0° 89° (E) 6,358 12.4 72.6°
